Location: Austin
(30.3000°N, 97.7500°W)
Time: 20:51:16
(UTC-06:00)

Cosmos 1655 Rocket - Visible Passes

Search period start: 26 February 2024 00:00
Search period end: 07 March 2024 00:00
Orbit: 970 x 1006 km, 83.0° (Epoch: 26 February)

Date Brightness Start Highest point End Pass type
(mag) Time Alt. Az. Time Alt. Az. Time Alt. Az.
29 Feb 6.5 21:43:50 10° N 21:44:01 11° NNW 21:44:01 11° NNW visible
01 Mar 6.1 20:28:11 10° NNE 20:28:34 12° NNE 20:28:34 12° NNE visible
01 Mar 6.7 22:13:33 10° NNW 22:13:33 10° NNW 22:13:33 10° NNW visible
02 Mar 5.8 20:56:35 10° N 20:58:10 19° N 20:58:10 19° N visible
03 Mar 5.9 19:42:50 10° NE 19:42:51 10° NE 19:42:51 10° NE visible
03 Mar 5.8 21:25:40 10° NNW 21:27:50 23° NNW 21:27:50 23° NNW visible
04 Mar 5.3 20:09:55 10° NNE 20:12:36 22° NE 20:12:36 22° NE visible
04 Mar 6.1 21:55:25 10° NNW 21:57:35 20° NW 21:57:35 20° NW visible
05 Mar 4.6 20:38:22 10° N 20:42:27 41° NNE 20:42:27 41° NNE visible
05 Mar 6.7 22:26:34 10° NW 22:27:26 12° WNW 22:27:26 12° WNW visible
06 Mar 5.5 19:24:24 10° NE 19:27:26 14° ENE 19:27:26 14° ENE visible
06 Mar 4.6 21:07:30 10° NNW 21:12:26 52° NW 21:12:26 52° NW visible
